RH
87 94 99 98 99 99 100 100 99 94 87 91 95 98 94 90 57 33 39 33 41 22 27 38 27 46 46 42 40 37 52 61 48 41 37 23 24 20 20 22 24 29 28 25 36
85 91 92 99 99 100 98 98 99 100 93 84 91 99 96 96 84 46 19 31 35 42 27 36 30 40 43 37 37 41 59 50 35 21 29 25 25 21 21 24 34 30 28 29 35
96 92 87 85 81 88 93 93 94 96 99 89 86 95 100 99 88 50 32 32 30 39 27 30 37 44 45 38 35 41 51 40 31 27 20 23 22 20 25 26 28 26 27 31 39
100 89 89 95 88 77 80 78 75 91 99 97 82 96 100 100 71 39 31 39 39 35 34 26 30 41 42 42 32 39 35 34 30 27 22 18 18 21 21 21 18 22 26 31 41
98 89 89 83 68 64 80 79 76 70 89 87 89 90 100 100 87 39 30 36 45 39 32 23 31 39 41 37 33 38 35 30 28 27 24 18 20 20 19 19 19 20 29 33 37
89 82 83 83 74 60 60 83 66 81 74 87 89 94 100 98 68 64 51 46 32 39 29 25 30 35 32 33 37 29 30 29 27 25 22 22 22 20 19 17 18 18 25 31 34
85 85 83 81 82 73 54 61 76 72 70 58 81 97 100 96 77 60 50 45 38 42 42 26 28 33 29 29 25 27 35 30 26 24 26 21 27 27 19 19 19 19 21 28 30
94 95 88 76 81 80 62 58 56 56 52 57 55 94 98 92 83 79 64 57 42 43 50 39 28 33 40 32 25 26 29 35 25 25 22 23 35 26 18 19 19 18 18 23 25
90 92 88 78 72 77 62 48 46 43 52 56 79 95 96 79 83 77 65 68 49 36 37 44 50 39 36 38 40 36 39 35 30 23 23 27 31 25 17 17 18 16 14 17 19
92 92 82 96 84 66 58 44 38 50 59 64 91 99 83 93 82 70 54 60 64 39 40 45 46 46 46 47 55 46 38 34 32 22 28 30 31 24 16 16 16 14 13 14 16
90 89 74 91 81 64 64 67 63 77 78 88 89 89 72 68 63 72 68 61 67 43 52 46 56 60 53 41 36 35 34 36 29 25 27 32 26 24 22 20 20 18 16 14 13
92 85 87 84 47 57 87 70 96 99 91 69 56 74 84 84 88 72 64 69 54 54 52 52 64 50 37 35 37 36 38 38 32 27 29 31 31 26 25 23 20 17 18 18 17
87 81 76 74 36 58 87 80 95 99 99 76 64 49 61 76 85 77 62 60 50 55 52 55 46 41 36 36 38 39 40 37 35 27 27 29 37 31 26 26 20 22 20 19 18
78 79 80 88 47 53 49 78 87 99 100 70 85 54 59 67 89 69 59 49 38 57 49 54 39 43 40 39 35 42 33 33 34 35 44 32 54 39 33 31 28 23 20 18 18
80 81 82 80 85 58 36 69 85 99 97 45 68 53 42 67 57 62 64 40 45 47 46 55 50 46 46 39 33 35 31 32 34 39 40 40 50 46 32 28 22 19 18 16 15
81 78 80 76 68 52 54 73 77 99 93 59 64 84 79 67 65 54 64 54 41 43 40 44 37 37 40 33 30 30 32 34 44 48 56 46 45 52 34 28 26 22 20 18 16
87 74 82 86 69 55 57 76 97 97 49 57 60 57 76 80 70 72 66 69 71 66 77 52 46 38 33 39 35 32 41 60 60 67 54 47 48 33 33 28 26 24 20 16 14
78 72 55 54 51 56 75 98 97 62 53 32 49 54 86 75 75 73 82 83 58 49 84 80 69 43 37 35 40 36 34 60 65 75 56 43 53 40 28 21 21 18 15 14 14
85 56 58 46 72 85 98 98 86 68 52 54 49 61 68 66 87 72 74 69 60 43 59 75 66 40 37 32 30 44 41 33 50 48 59 53 42 30 28 27 21 20 17 15 14
94 63 49 68 86 93 93 78 80 61 48 47 70 65 97 91 85 86 74 58 60 46 40 49 64 42 39 32 30 33 30 44 53 70 73 61 52 41 28 26 24 24 22 16 16
87 86 56 82 88 98 94 89 69 66 55 62 66 69 64 94 88 86 94 56 57 66 44 45 46 48 42 42 41 43 38 43 39 59 67 65 57 36 28 25 25 23 20 19 17
92 98 69 86 92 99 88 70 58 64 60 68 65 64 66 62 74 94 87 97 65 55 65 44 78 54 47 35 31 39 35 40 46 57 52 61 46 29 30 28 25 23 20 18 18
88 88 54 89 100 100 97 93 81 76 74 69 68 58 54 68 94 95 99 88 83 71 59 44 71 94 61 48 39 38 39 33 39 52 56 57 50 29 30 29 25 23 19 19 20
87 93 80 98 87 91 96 90 84 79 84 68 73 68 71 73 72 86 76 63 85 98 92 44 68 86 80 63 58 60 40 36 38 58 47 48 42 30 30 29 27 23 18 18 18
94 92 91 98 87 96 93 96 77 77 68 72 82 86 96 93 68 67 54 60 83 84 96 76 73 84 70 59 50 47 44 42 43 38 47 37 43 32 30 29 28 20 20 21 22
97 93 85 89 96 81 78 88 67 66 63 72 81 75 69 89 95 93 70 76 90 94 100 97 97 96 88 70 49 47 40 39 40 38 37 41 41 31 29 26 26 22 22 24 26
98 85 89 75 90 91 88 76 69 62 57 59 68 68 75 64 63 64 63 70 96 99 98 100 100 95 96 85 91 69 45 42 39 36 36 44 34 34 34 32 31 23 21 20 20
Wind_Speed
20 23 22 22 21 21 21 21 19 23 25 24 22 22 22 20 22 23 29 19 12 6 9 8 13 11 5 4 7 2 2 2 4 1 5 6 4 5 9 13 7 13 16 9 27
20 21 20 23 23 21 23 21 23 22 24 27 23 21 22 22 24 30 25 22 23 17 16 14 14 13 5 5 5 4 3 7 4 3 4 3 4 7 6 5 4 11 11 16 30
20 20 22 21 21 23 21 22 24 25 24 26 26 23 20 19 23 26 5 11 14 20 16 14 13 12 8 9 8 6 6 4 5 9 12 5 2 5 10 2 10 18 19 27 32
21 22 21 22 23 22 22 23 24 26 25 27 26 22 18 16 7 2 10 7 8 11 16 17 17 7 5 6 11 3 12 10 17 15 12 1 3 1 6 5 7 15 18 29 33
22 21 21 23 24 25 23 23 23 22 27 30 26 21 16 17 26 9 10 4 9 8 19 20 20 13 6 6 10 5 8 14 25 19 15 9 4 4 7 9 6 8 20 27 32
21 22 22 23 23 24 26 26 24 24 21 28 25 18 25 18 38 31 28 26 21 15 15 23 18 20 6 11 8 6 20 22 20 18 12 7 7 7 8 13 10 10 21 29 33
22 24 24 23 23 24 25 26 24 26 25 21 26 20 28 33 23 13 13 22 20 22 23 24 28 14 10 4 18 22 7 8 7 9 8 11 7 7 19 18 18 12 21 29 32
22 22 24 24 23 24 26 25 25 27 23 20 20 21 25 35 39 41 29 22 16 19 25 21 26 26 12 10 4 4 5 7 5 8 6 13 12 7 19 22 25 28 27 30 34
21 22 23 25 24 24 27 28 25 23 22 23 21 18 17 22 43 41 39 31 25 22 26 20 21 19 10 5 3 2 3 6 5 8 5 8 7 9 26 20 29 30 28 33 32
23 26 23 26 24 24 26 28 24 19 21 16 18 11 29 27 34 33 37 39 32 18 16 15 13 5 3 6 12 6 7 6 6 4 8 7 11 8 12 11 15 18 17 20 31
21 25 26 25 26 21 24 25 11 4 4 10 10 21 2 14 32 37 32 32 26 16 10 9 6 16 21 12 7 6 5 8 4 5 5 11 16 16 19 12 18 23 26 28 28
21 25 25 25 26 19 10 16 13 12 14 24 34 32 39 25 7 25 25 24 19 21 9 4 21 18 8 11 12 8 9 8 7 7 8 8 15 13 8 12 22 30 32 33 33
20 25 25 26 24 13 12 13 14 20 8 20 30 34 32 22 14 17 28 28 16 17 19 20 11 14 13 13 18 18 17 12 8 4 3 0 6 7 9 11 30 31 33 35 37
22 22 22 23 17 14 16 15 18 18 5 7 8 17 25 21 11 37 17 28 6 23 18 13 17 19 14 19 18 20 12 10 8 4 6 6 5 6 7 11 9 26 31 32 34
22 22 22 19 22 23 20 19 15 8 5 6 7 3 24 21 10 19 35 24 19 7 11 16 20 19 23 24 18 16 10 12 8 5 4 4 3 7 7 11 19 17 28 36 32
22 23 22 23 26 25 15 14 13 3 8 6 4 6 6 20 22 8 25 24 18 17 15 16 10 14 13 18 20 6 6 3 4 4 6 7 6 5 7 13 10 15 23 24 20
24 23 25 24 28 26 21 10 2 6 6 5 5 7 13 15 22 13 14 23 14 14 16 17 23 11 6 10 8 10 8 2 3 3 10 8 6 16 9 12 10 13 19 17 17
22 26 30 31 30 21 13 3 9 4 12 15 13 20 10 16 18 27 21 17 22 12 6 12 10 26 14 19 11 22 15 6 9 5 6 7 8 6 16 22 18 19 17 20 18
22 26 32 23 6 12 10 8 4 5 5 7 13 11 13 9 11 24 29 25 23 22 15 14 16 10 9 8 18 7 18 13 5 2 3 5 6 9 9 6 8 12 16 18 18
19 27 25 7 2 14 6 12 6 8 12 12 4 6 6 14 12 12 22 29 26 29 17 6 11 11 29 3 16 15 14 8 3 7 6 5 5 6 3 8 8 8 15 20 19
15 10 6 4 4 11 7 7 9 23 20 5 7 11 13 7 12 18 12 13 31 26 24 20 13 7 11 21 18 7 13 4 5 5 6 2 6 8 13 10 12 12 23 21 18
5 3 5 6 1 3 6 4 6 10 9 8 6 14 16 13 8 10 10 13 15 28 34 28 1 13 20 19 17 8 13 9 10 17 7 4 8 4 9 8 10 16 24 21 18
3 9 16 6 2 2 3 5 7 5 8 6 6 5 8 11 5 9 6 6 28 18 27 24 8 6 10 8 2 21 11 24 12 5 11 9 7 5 6 6 17 19 24 20 18
4 3 6 8 5 4 5 4 4 12 10 7 6 9 15 15 14 7 12 13 26 16 42 30 10 14 14 30 26 32 29 21 19 5 13 18 7 4 6 8 7 18 26 23 22
11 4 5 3 3 1 4 0 7 5 8 3 4 4 8 5 13 19 17 17 9 18 14 10 25 19 18 7 21 28 29 21 22 29 13 26 14 13 10 10 13 28 27 24 24
9 4 5 5 7 6 6 4 8 10 6 4 4 8 10 5 9 12 15 9 7 6 6 12 6 12 21 16 14 24 26 25 25 34 26 8 11 7 10 13 8 15 23 23 26
17 14 7 6 3 3 4 6 7 5 9 7 9 10 10 13 15 18 22 21 8 2 8 5 3 15 13 19 12 13 24 29 32 23 27 23 18 6 6 11 13 26 26 30 30
Wind_Direction
337 334 329 331 316 308 279 280 283 279 263 265 273 288 290 295 293 283 268 265 272 247 226 216 194 182 214 213 213 232 79 242 267 275 235 187 162 121 143 132 154 191 174 194 169
329 332 330 327 322 315 308 276 273 283 274 259 260 285 285 293 297 282 272 266 260 245 226 211 205 193 207 206 206 154 158 219 207 275 285 146 112 139 136 126 89 163 178 166 170
334 326 328 327 323 319 310 303 269 270 284 270 254 260 282 284 304 288 261 244 252 208 210 215 211 211 222 226 207 192 211 203 246 322 334 331 93 146 138 186 187 179 173 173 177
329 331 324 324 323 315 306 305 304 270 273 276 261 248 291 255 245 228 141 99 57 216 212 221 218 207 208 209 217 212 249 226 269 290 295 295 317 249 173 164 148 208 197 183 186
328 322 325 324 320 315 308 304 303 300 266 272 267 251 280 225 233 208 209 227 332 245 223 217 214 205 200 201 232 204 259 260 265 272 256 231 223 234 244 205 215 188 197 200 199
325 324 321 321 322 314 310 310 299 294 285 267 268 259 261 239 247 257 246 259 263 249 237 218 218 215 237 224 181 223 234 253 259 247 228 214 230 193 238 229 235 224 208 208 208
328 320 320 321 321 322 313 306 303 290 289 301 266 267 260 250 246 247 221 232 250 241 243 233 216 195 218 281 243 241 253 267 215 214 221 218 276 223 238 250 255 235 223 215 218
330 326 322 321 321 322 321 309 300 297 296 288 275 273 264 247 250 249 246 249 223 218 237 246 230 234 237 259 290 181 144 216 242 176 219 171 254 252 245 246 254 256 246 229 224
323 320 320 320 318 323 320 316 304 302 287 276 271 255 265 261 240 244 240 247 239 224 232 244 238 224 230 188 277 293 203 211 266 207 151 178 249 239 248 233 253 248 262 235 229
320 322 323 324 320 317 323 319 316 289 272 266 242 264 247 233 232 240 239 242 246 229 231 230 212 187 172 168 216 214 213 241 200 235 192 189 252 261 209 212 229 240 247 239 238
316 314 319 319 323 323 328 335 353 319 311 243 213 230 237 258 241 239 237 226 225 225 200 188 189 211 208 191 195 200 224 222 245 224 157 214 229 237 240 244 252 250 247 248 245
310 310 319 324 322 323 328 337 314 312 289 279 265 262 255 251 315 232 215 184 190 207 140 188 224 218 201 192 195 200 226 238 286 263 183 236 232 230 231 238 240 245 251 252 253
307 312 320 317 328 323 318 337 319 310 280 279 253 254 243 247 234 253 202 194 196 195 192 199 217 200 199 200 208 217 217 228 233 325 210 26 278 245 254 240 255 255 255 262 262
305 307 311 319 324 313 319 334 336 323 270 260 220 246 225 223 249 228 225 193 194 205 197 219 213 191 205 218 204 223 203 222 227 193 237 163 271 268 241 246 253 256 251 258 259
300 301 306 310 303 304 312 317 330 308 283 242 219 251 204 197 183 224 220 200 201 180 181 210 188 195 207 215 202 223 179 202 209 208 157 228 267 259 239 248 257 263 253 256 255
300 300 301 299 296 298 315 311 311 268 244 288 223 201 153 199 205 245 187 209 208 225 210 214 191 185 209 211 207 143 153 98 71 131 241 197 201 222 214 233 253 250 249 252 251
301 298 294 290 278 293 303 314 252 211 303 263 350 332 230 205 212 205 196 200 193 192 204 225 222 214 154 199 177 181 136 211 233 195 235 190 218 247 230 244 226 261 248 204 184
300 298 296 289 289 281 279 250 225 235 232 295 350 316 291 220 212 213 226 206 198 198 145 200 205 214 190 205 184 196 185 174 199 193 211 176 235 249 221 231 224 238 193 188 192
300 306 303 321 301 224 189 228 245 235 254 321 343 296 282 260 257 197 215 220 200 209 197 195 230 190 194 187 174 198 207 189 93 25 106 209 282 302 253 213 210 207 196 196 198
301 311 311 344 176 172 193 233 243 237 284 305 270 262 314 353 339 217 198 212 208 205 208 193 226 228 203 172 200 177 172 166 179 176 218 261 256 220 237 206 193 196 195 196 206
309 305 315 38 207 181 223 221 239 250 270 269 266 265 278 304 321 323 300 196 197 203 209 216 220 197 166 203 192 169 183 165 177 159 186 220 253 204 215 212 191 202 199 191 195
283 275 206 262 323 211 237 226 280 260 271 263 251 264 266 273 261 273 255 301 297 200 205 202 202 226 196 191 210 201 189 165 190 215 217 151 248 238 221 218 185 199 195 191 196
246 267 295 218 185 235 215 234 246 278 269 245 254 256 284 297 254 222 279 300 305 249 203 200 184 195 201 233 274 204 189 199 192 87 206 200 245 232 224 190 202 177 188 190 191
207 273 277 216 234 188 249 253 263 240 255 241 271 254 251 256 252 247 287 280 338 335 312 195 186 208 203 200 196 198 207 196 193 165 213 221 216 207 213 182 190 190 187 187 191
188 228 237 273 296 290 311 151 267 276 221 252 279 13 0 280 270 273 292 318 312 316 323 228 205 203 223 250 193 210 206 193 196 217 193 228 203 207 196 195 203 201 195 193 197
181 201 246 267 266 268 272 224 262 268 274 276 274 326 316 281 290 287 312 298 261 328 315 321 198 186 216 231 222 205 202 199 204 222 219 184 223 185 232 210 177 202 205 206 209
219 227 236 256 245 161 224 232 254 297 289 259 274 300 296 294 294 303 293 282 236 224 323 305 301 182 216 208 234 227 197 197 213 216 214 218 213 174 196 213 211 212 212 212 217